User: anonymous   Login
Location: Caltech
(34.1382°N, 118.1253°W)
Time: 02:23:13
(UTC-07:00)
Language:

Iridium 12 - Orbit

View from above orbital plane
View from above orbital plane
View from above satellite
View from above satellite

Ground track
Ground track

The orbit data is extracted from the following two-line orbital elements,

1 24837U 97030B   15211.25826111  .00000217  00000-0  70559-4 0  9999
2 24837 086.3957 277.6362 0002284 094.0687 327.3612 14.34217628948347
Epoch (UTC): 30 July 2015 06:11:53
Eccentricity: 0.0002284
inclination: 86.3957°
perigee height: 776 km
apogee height: 779 km
right ascension of ascending node: 277.6362°
argument of perigee: 94.0687°
revolutions per day: 14.34217628
mean anomaly at epoch: 327.3612°
orbit number at epoch: 94834

The dashed part of the orbit path shows where the satellite is in the earth's shadow,  

DLR